COSMOS 1275 DEB, 42212

Orbit data source: Space-Track

COSMOS 1275 DEB, 42212 is space debris in LEO originally from a launch on Thu, 04 Jun 1981 UTC launched from the Plesetsk Missile And Space Complex (PKMTR). Debris objects in space refer to the collection of defunct objects orbiting the Earth. Examples of debris include non-operational satellites, rocket bodies, and fragments generated from explosions, collisions, or faulty payload assembly.

Loading next visibility...
Identifier
42212, 1981-053UC
Orbit
LEO
Country
Flag of CISCIS
Related business
Manufacturer
Unknown
Mission
Spacecraft
Bus & Motor
Unknown
Mass
Unknown
Launch date (UTC)
1981-06-04 (45 years ago)
Launch vehicle
Unknown
Launch site
Plesetsk Missile And Space Complex (PKMTR)
Object type
Payload
Rocket body
Debris
Shape & HBR
Unknown shape, 0.1 m
Radar Cross Section
Small (<0.1 m²)

Expand to show TLE details & history
Last TLE update: 1 day ago

TLE from 1 day ago
0 COSMOS 1275 DEB
1 42212U 81053UC  25340.11464838  .00001681  00000-0  19306-2 0  9994
2 42212  83.0481 284.1485 0151461  88.7569 290.8917 13.64167718597674
Epoch: 2025-12-06T02:45Z
TLE epoch observation values (Epoch: 2025-12-06T02:45:05.620Z)
Latitude
17.87073°
Longitude
169.96946°
Altitude
984.436 km
Speed
7.38 km/s
True Right ascension
19h 05m 33s
True Declination
17° 46' 25"
Sunlit
Object was in daylight at epoch
Visualization orbit readout
Latitude
Unknown
Longitude
Unknown
Altitude
Unknown
Speed
Unknown
Apparent Right ascension
Unknown
Apparent Declination
Unknown
Sunlit
N/A
Visualization observer readout
Local Sidereal Time
02:42:56
Azimuth
Unknown
Elevation
Unknown
Doppler factor
Unknown
Orbital elements
Apogee altitude
1,129.762 km
Perigee altitude
905.724 km
Semi-major axis
7,395.88 km
Eccentricity
0.01515
Inclination
83.0481°
RAAN
284.1485°
Arg. of periapsis
88.7569°
True anomaly
289.25939°
Mean anomaly
290.8917°
Eccentric anomaly
290.07663°
Mean motion
3.41239 °/min
Orbital period
105.5 mins
BSTAR
0.0019306
Loading maneuver chart data...
Computing Atmospheric mass density...

Documentation

Showing up to 5 results
|